Location: Debolt
(55.2626°N, 118.0981°W)
Time: 23:26:52
(UTC+00:00)

Oscar 11 - Pass Details

Date: 14 December 2023
Orbit: 603 x 617 km, 97.7° (Epoch: 23 February)

Event Time Altitude Azimuth Distance (km) Brightness Sun altitude
Rises 00:09:25 0° 208° (SSW) 2,859 11.7 -6.2°
Reaches altitude 10° 00:12:12 10° 228° (SW) 1,964 11.3 -6.5°
Maximum altitude 00:15:08 18° 272° (W) 1,520 10.0 -6.9°
Drops below altitude 10° 00:18:06 10° 315° (NW) 1,982 9.8 -7.2°
Sets 00:20:56 0° 335° (NNW) 2,897 10.4 -7.6°
